"TOA5","AWS1","CR1000","7964","CR1000.Std.14","CPU:AWS1_114.CR1","64363","TBL110"
"TIMESTAMP","RECORD","Wind_spd_WVc(1)","Wind_spd_WVc(2)","Air_Temp_Avg","Humidity_Avg","SW_upper_Wm2_Avg","Rain_Tot","Press_Avg","Issui_Tot","Depth_cm","SR50A_Raw","Quality","Ground_Temp_Avg(1)","Ground_Temp_Avg(2)","SW_lower_Wm2_Avg","Albedo_Avg","SWC_per(1)","SWC_per(2)","Period(1)","Period(2)"
"TS","RN","","","","","","","","","","","","","","","","","","",""
"","","WVc","WVc","Avg","Avg","Avg","Tot","Avg","Tot","Smp","Smp","Smp","Avg","Avg","Avg","Avg","Smp","Smp","Smp","Smp"
"2016-07-29 00:00:00",246301,0.107,46.87,18.74,100,0,0.5,868.6467,0,-2.087,3.096,212,21.67,20.89,0.2273725,0,48.86,56.52,33.01,34.87
"2016-07-29 00:10:00",246302,0.022,30.45,18.74,100,0,0.5,868.6522,0,2.636,3.051,270,21.67,20.88,0.2273725,0,48.86,56.52,33.01,34.87
"2016-07-29 00:20:00",246303,0.065,32.71,18.57,100,0,0.5,868.6481,0,-37.08,3.436,201,21.63,20.89,0.1477921,0,48.86,56.52,33.01,34.87
"2016-07-29 00:30:00",246304,0,0,18.5,100,0,0.5,868.6498,0,4.326,3.036,411,21.63,20.89,0.1743189,0,48.86,56.52,33.01,34.87
"2016-07-29 00:40:00",246305,0.056,26.93,18.36,100,0,0,868.6061,0,3.283,3.047,311,21.63,20.9,0.04926403,0,48.86,56.52,33.01,34.87
"2016-07-29 00:50:00",246306,0.04,86,18.26,100,0,0,868.4146,0,3.363,3.046,352,21.7,20.9,0.1553712,0,48.92,56.52,33.03,34.87
"2016-07-29 01:00:00",246307,0.146,33.81,18.19,100,0,0,868.4158,0,2.894,3.051,294,21.69,20.89,0.2273725,0,48.92,56.52,33.03,34.87
"2016-07-29 01:10:00",246308,0.162,33.75,18.19,100,0,0,868.4098,0,2.941,3.051,259,21.59,20.9,0.2273725,0,48.97,56.52,33.04,34.87
"2016-07-29 01:20:00",246309,0.074,35.95,18.11,100,0,0,868.412,0,2.448,3.056,240,21.54,20.91,0.2273725,0,48.97,56.52,33.04,34.87
"2016-07-29 01:30:00",246310,0.174,39.57,18.09,100,0,0,868.4162,0,2.115,3.059,215,21.57,20.9,0.2008457,0,48.97,56.52,33.04,34.87
"2016-07-29 01:40:00",246311,0.036,301.1,18.04,100,0,0,868.3898,0,2.518,3.056,215,21.61,20.91,0.2235829,0,49.03,56.52,33.05,34.87
"2016-07-29 01:50:00",246312,0.082,37.6,18.01,100,0,0,868.4175,0,2.335,3.058,207,21.49,20.9,0.189477,0,49.08,56.52,33.07,34.87
"2016-07-29 02:00:00",246313,0.027,305.6,17.9,100,0,0,868.4176,0,2.748,3.054,222,21.46,20.9,0.189477,0,49.08,56.52,33.07,34.87
"2016-07-29 02:10:00",246314,0.083,18.35,17.82,100,0,0,868.4176,0,2.739,3.055,222,21.45,20.87,0.181898,0,49.08,56.52,33.07,34.87
"2016-07-29 02:20:00",246315,0.033,11.22,17.74,100,0,0,868.4133,0,2.351,3.059,207,21.48,20.86,0.1591607,0,49.08,56.58,33.07,34.88
"2016-07-29 02:30:00",246316,0.097,34.21,17.67,100,0,0,868.3965,0,2.374,3.059,225,21.49,20.85,0.1515816,0,49.13,56.58,33.08,34.88
"2016-07-29 02:40:00",246317,0.128,37.7,17.47,100,0,0,868.386,0,1.976,3.064,219,21.46,20.85,0.1553712,0,49.13,56.58,33.08,34.88
"2016-07-29 02:50:00",246318,0.003,22.69,17.42,100,0,0,868.2975,0,1.231,3.071,204,21.37,20.85,0.1477921,0,49.13,56.58,33.08,34.88
"2016-07-29 03:00:00",246319,0,0,17.42,100,0,0,868.2028,0,0.716,3.076,218,21.37,20.84,0.1970561,0,49.13,56.58,33.08,34.88
"2016-07-29 03:10:00",246320,0.006,21.22,17.37,100,0,0.5,868.2617,0,2.333,3.061,237,21.38,20.84,0.2008457,0,49.13,56.58,33.08,34.88
"2016-07-29 03:20:00",246321,0.054,140.8,17.18,100,0,0.5,868.1649,0,2.348,3.062,219,21.4,20.84,0.05305357,0,49.08,56.58,33.07,34.88
"2016-07-29 03:30:00",246322,0.311,130.6,17.04,100,0,0,868.1649,0,2.442,3.062,214,21.37,20.83,0.07200127,0,49.13,56.64,33.08,34.9
"2016-07-29 03:40:00",246323,0.356,127,16.96,100,0,0,868.1649,0,2.592,3.061,233,21.31,20.82,0.2008457,0,49.13,56.58,33.08,34.88
"2016-07-29 03:50:00",246324,0.349,129.1,16.88,100,0,0,868.1649,0,1.768,3.069,221,21.28,20.78,0.1856875,0,49.19,56.64,33.09,34.9
"2016-07-29 04:00:00",246325,0.186,107.2,16.86,100,0,0,868.1649,0,1.047,3.076,231,21.29,20.77,0.2273725,0,49.24,56.64,33.11,34.9
"2016-07-29 04:10:00",246326,0.04,12.93,16.86,100,0,0,868.1711,0,-0.189,3.088,218,21.33,20.76,0.2880051,0,49.24,56.64,33.11,34.9
"2016-07-29 04:20:00",246327,0.165,46.66,16.81,100,0,0,868.3586,0,-0.245,3.089,224,21.31,20.76,0.2425306,0,49.3,56.64,33.12,34.9
"2016-07-29 04:30:00",246328,0.093,87.3,16.78,100,0,0,868.4176,0,-1.584,3.102,203,21.24,20.77,0.2387411,0,49.3,56.64,33.12,34.9
"2016-07-29 04:40:00",246329,0.041,83.9,16.73,100,0,0,868.4176,0,-2.464,3.111,204,21.19,20.78,0.2463202,0,49.35,56.7,33.14,34.91
"2016-07-29 04:50:00",246330,0,0,16.76,100,0.2318867,0,868.4176,0,-0.348,3.09,273,21.22,20.79,0.4054809,0.948,49.35,56.7,33.14,34.91
"2016-07-29 05:00:00",246331,0,0,16.73,100,0.7585447,0,868.4176,0,3.361,3.054,305,21.27,20.8,0.3941123,0.58,49.35,56.7,33.14,34.91
"2016-07-29 05:10:00",246332,0,0,16.76,100,3.922423,0,868.426,0,2.902,3.058,254,21.26,20.81,0.966333,0.259,49.35,56.7,33.14,34.91
"2016-07-29 05:20:00",246333,0,0,16.84,100,8.788114,0,868.5566,0,2.799,3.059,261,21.18,20.82,1.743189,0.2,49.35,56.7,33.14,34.91
"2016-07-29 05:30:00",246334,0,0,16.81,100,15.11194,0,868.6661,0,3.155,3.056,379,21.12,20.83,2.592046,0.173,49.35,56.7,33.14,34.91
"2016-07-29 05:40:00",246335,0.098,129,16.73,100,31.28113,0,868.6029,0,-3.13,3.117,214,21.11,20.83,4.683873,0.151,49.35,56.75,33.14,34.93
"2016-07-29 05:50:00",246336,0,0,16.8,100,37.19227,0,868.664,0,-4.232,3.127,203,21.13,20.84,5.335673,0.144,49.35,56.75,33.14,34.93
"2016-07-29 06:00:00",246337,0.221,43,16.7,100,20.26847,0,868.6703,0,-3.294,3.12,192,21.12,20.84,3.008896,0.148,49.35,56.7,33.14,34.91
"2016-07-29 06:10:00",246338,0.058,329.5,16.64,100,28.81291,0,868.7145,0,-3.366,3.12,200,21.09,20.84,4.232917,0.147,49.41,56.75,33.15,34.93
"2016-07-29 06:20:00",246339,0.164,112,16.68,100,49.15212,0,868.6746,0,-2.051,3.107,218,21.08,20.84,6.680961,0.136,49.35,56.75,33.14,34.93
"2016-07-29 06:30:00",246340,0.19,134,16.61,100,59.88966,0,868.7946,0,3.25,3.056,339,21.03,20.84,8.014879,0.134,49.41,56.75,33.15,34.93
"2016-07-29 06:40:00",246341,0.195,136.4,16.46,100,72.36831,0,868.9167,0,2.908,3.06,285,21.02,20.84,9.735331,0.134,49.35,56.75,33.14,34.93
"2016-07-29 06:50:00",246342,0.303,142.1,16.51,100,78.41702,0,868.923,0,2.987,3.059,252,21.02,20.84,10.37576,0.132,49.35,56.75,33.14,34.93
"2016-07-29 07:00:00",246343,0.042,141.3,16.7,100,88.64754,0,868.923,0,3.371,3.053,277,21.02,20.83,11.89916,0.134,49.41,56.81,33.15,34.94
"2016-07-29 07:10:00",246344,0.157,43.56,16.93,100,103.5237,0,868.923,0,2.957,3.057,232,21.03,20.83,13.70298,0.132,49.41,56.75,33.15,34.93
"2016-07-29 07:20:00",246345,0.075,3.684,17.05,100,93.21847,0,868.9504,0,2.91,3.057,214,21.04,20.83,12.14548,0.13,49.35,56.81,33.14,34.94
"2016-07-29 07:30:00",246346,0.072,343.7,17.1,100,116.7569,0,869.119,0,3.125,3.054,220,21.02,20.82,15.34006,0.131,49.41,56.81,33.15,34.94
"2016-07-29 07:40:00",246347,0.139,0.306,17.14,100,96.40592,0,869.1758,0,3.093,3.055,223,21.01,20.8,12.28569,0.127,49.41,56.81,33.15,34.94
"2016-07-29 07:50:00",246348,0.043,24.82,17.16,100,69.90402,0,869.1701,0,2.863,3.057,213,21.01,20.76,8.844789,0.126,49.35,56.81,33.14,34.94
"2016-07-29 08:00:00",246349,0.261,8.68,17.05,100,97.41601,0,869.1691,0,2.751,3.059,206,21,20.71,12.8996,0.132,49.41,56.81,33.15,34.94
"2016-07-29 08:10:00",246350,0.044,10.6,17.24,100,147.0515,0,869.1705,0,3.214,3.052,215,20.98,20.69,19.77004,0.134,49.41,56.81,33.15,34.94
"2016-07-29 08:20:00",246351,0.012,120.2,17.48,100,188.5003,0,869.163,0,2.2,3.06,211,20.99,20.68,25.46572,0.135,49.41,56.81,33.15,34.94
"2016-07-29 08:30:00",246352,0.203,52.18,17.77,100,175.0037,0,869.1672,0,2.772,3.054,207,20.98,20.68,23.07073,0.131,49.35,56.81,33.14,34.94
"2016-07-29 08:40:00",246353,0.036,11.62,17.74,100,135.8424,0,869.1708,0,2.406,3.058,210,20.99,20.67,17.2841,0.127,49.41,56.81,33.15,34.94
"2016-07-29 08:50:00",246354,0.235,315.7,17.57,100,94.53117,0,869.1592,0,1.855,3.067,202,20.97,20.67,11.50884,0.121,49.41,56.87,33.15,34.95
"2016-07-29 09:00:00",246355,0.076,327,17.24,100,145.4676,0,869.1483,0,2.207,3.062,203,20.94,20.67,19.36077,0.133,49.41,56.81,33.15,34.94
"2016-07-29 09:10:00",246356,0.032,119.6,17.48,100,140.2325,0,869.1532,0,2.454,3.058,203,20.97,20.67,18.5877,0.133,49.35,56.87,33.14,34.95
"2016-07-29 09:20:00",246357,0.07,339.7,17.63,100,162.25,0,869.3024,0,2.581,3.057,203,20.96,20.67,21.70649,0.134,49.41,56.87,33.15,34.95
"2016-07-29 09:30:00",246358,0.127,343.8,17.66,100,191.1572,0,869.3309,0,2.223,3.06,205,20.97,20.67,26.16678,0.137,49.41,56.87,33.15,34.95
"2016-07-29 09:40:00",246359,0.036,16.04,17.7,100,228.5145,0,869.2047,0,2.111,3.062,209,20.95,20.67,31.46835,0.138,49.35,56.87,33.14,34.95
"2016-07-29 09:50:00",246360,0.204,41.73,17.72,100,337.6389,0,869.2734,0,2.486,3.057,302,20.98,20.67,48.71455,0.144,49.35,56.87,33.14,34.95
"2016-07-29 10:00:00",246361,0.279,94.9,17.96,100,263.101,0,869.3801,0,2.378,3.056,211,21.02,20.67,36.01959,0.137,49.41,56.87,33.15,34.95
"2016-07-29 10:10:00",246362,0.184,45.44,18.16,100,320.491,0,869.3652,0,3.499,3.044,260,20.99,20.67,45.89513,0.143,49.41,56.87,33.15,34.95
"2016-07-29 10:20:00",246363,0.101,202.1,18.73,99.6,345.153,0,869.3596,0,2.223,3.055,215,20.98,20.67,48.20288,0.14,49.41,56.87,33.15,34.95
"2016-07-29 10:30:00",246364,0.035,190.5,18.8,99.5,276.6845,0,869.3576,0,3.116,3.045,224,20.97,20.67,37.55009,0.136,49.35,56.87,33.14,34.95
"2016-07-29 10:40:00",246365,0.157,50.81,19.2,98.8,279.5597,0,869.3472,0,4.164,3.034,228,20.96,20.66,38.02354,0.136,49.41,56.87,33.15,34.95
"2016-07-29 10:50:00",246366,0.079,96,19.4,98.8,513.9097,0,869.2089,0,3.253,3.039,230,21.07,20.65,75.00317,0.146,49.35,56.87,33.14,34.95
"2016-07-29 11:00:00",246367,0.237,52.21,19.86,92.7,516.6847,0,869.0807,0,1.986,3.052,214,21.03,20.6,73.19616,0.141,49.41,56.87,33.15,34.95
"2016-07-29 11:10:00",246368,0.364,339.5,19.5,98.6,425.4215,0,868.8918,0,3.417,3.038,216,20.99,20.61,60.58634,0.142,49.35,56.87,33.14,34.95
"2016-07-29 11:20:00",246369,0.332,329.8,19.68,96.3,399.8782,0,868.8429,0,3.362,3.039,235,21.03,20.61,56.01947,0.14,49.41,56.87,33.15,34.95
"2016-07-29 11:30:00",246370,0.279,308.3,19.66,97.3,488.0009,0,868.8396,0,1.541,3.055,242,21.1,20.56,72.20524,0.146,49.41,56.87,33.15,34.95
"2016-07-29 11:40:00",246371,0.331,335.2,19.92,89.3,415.9177,0,868.8308,0,3.69,3.034,216,21.1,20.53,59.51703,0.143,49.35,56.87,33.14,34.95
"2016-07-29 11:50:00",246372,0.194,15.15,20.29,87.7,582.1317,0,868.8308,0,2.959,3.037,213,21.1,20.53,85.48776,0.145,49.35,56.87,33.14,34.95
"2016-07-29 12:00:00",246373,0.258,323.4,20.32,87.7,409.47,0,868.7929,0,3.507,3.034,239,21.19,20.5,53.92033,0.131,49.35,56.87,33.14,34.95
"2016-07-29 12:10:00",246374,0.322,114.9,20.93,83,544.3693,0,868.5931,0,3.055,3.035,236,21.15,20.45,75.5733,0.135,49.3,56.87,33.12,34.95
"2016-07-29 12:20:00",246375,0.262,287.3,20.89,78.7,456.0825,0,868.5803,0,3.138,3.036,245,21.19,20.45,63.00171,0.138,49.35,56.87,33.14,34.95
"2016-07-29 12:30:00",246376,0.387,305.2,20.63,80.5,517.8209,0,868.5787,0,3.286,3.033,218,21.26,20.45,74.49345,0.143,49.35,56.81,33.14,34.94
"2016-07-29 12:40:00",246377,0.367,347.4,21.43,75.75,624.1797,0,868.5782,0,3.444,3.027,227,21.32,20.45,90.70993,0.144,49.35,56.81,33.14,34.94
"2016-07-29 12:50:00",246378,0.184,294.4,21.78,76.3,562.8082,0,868.574,0,2.417,3.036,209,21.32,20.42,80.28571,0.141,49.3,56.81,33.12,34.94
"2016-07-29 13:00:00",246379,0.279,199.6,22.04,75.05,543.3741,0,868.4982,0,2.209,3.038,243,21.38,20.41,75.00048,0.137,49.3,56.81,33.12,34.94
"2016-07-29 13:10:00",246380,0.249,160.6,21.92,75.29,486.1884,0,868.3655,0,2.962,3.033,244,21.42,20.41,65.09608,0.133,49.24,56.81,33.11,34.94
"2016-07-29 13:20:00",246381,0.196,196.1,21.77,76.52,693.9306,0,868.2771,0,1.933,3.04,203,21.46,20.41,101.5141,0.141,49.3,56.81,33.12,34.94
"2016-07-29 13:30:00",246382,0.459,347.2,22.6,70.32,1129.175,0,868.1887,0,1.245,3.041,300,21.47,20.5,175.851,0.154,49.3,56.81,33.12,34.94
"2016-07-29 13:40:00",246383,0.488,191.3,23.13,67.48,892.9962,0,868.0729,0,2.242,3.031,221,21.55,20.5,129.3051,0.144,49.24,56.81,33.11,34.94
"2016-07-29 13:50:00",246384,0.192,165.8,23.22,70.31,658.9597,0,867.9844,0,3.012,3.025,231,21.55,20.48,88.74346,0.129,49.24,56.75,33.11,34.93
"2016-07-29 14:00:00",246385,0.371,93.7,23.21,68.23,1001.424,0,867.8559,0,3.301,3.02,213,21.63,20.46,152.8763,0.15,49.24,56.75,33.11,34.93
"2016-07-29 14:10:00",246386,0.387,41.39,23.17,66.55,696.3664,0,867.8202,0,2.814,3.026,243,21.7,20.46,97.51354,0.134,49.24,56.75,33.11,34.93
"2016-07-29 14:20:00",246387,0.251,330.7,22.56,70.86,248.3604,0,867.8265,0,3.926,3.022,238,21.75,20.45,24.48619,0.083,49.19,56.75,33.09,34.93
"2016-07-29 14:30:00",246388,0.205,32.93,21.69,76.58,122.4684,0,867.9717,0,-0.924,3.07,208,21.77,20.4,9.312663,0.076,49.19,56.75,33.09,34.93
"2016-07-29 14:40:00",246389,0.209,123.7,21.59,78.17,159.8437,0,868.0729,0,2.179,3.041,242,21.88,20.44,18.48923,0.114,49.24,56.75,33.11,34.93
"2016-07-29 14:50:00",246390,0.119,171.6,21.79,76.04,202.0744,0,868.0729,0,2.806,3.032,316,21.99,20.45,26.65081,0.132,49.19,56.75,33.09,34.93
"2016-07-29 15:00:00",246391,0.244,113.3,21.97,75.46,226.0339,0,868.0729,0,4.58,3.016,383,22.04,20.43,30.11501,0.134,49.19,56.75,33.09,34.93
"2016-07-29 15:10:00",246392,0.138,65.21,21.98,76.75,224.7855,0,868.0729,0,4.474,3.015,454,22.13,20.44,31.76395,0.141,49.13,56.75,33.08,34.93
"2016-07-29 15:20:00",246393,0.331,122.3,21.95,75.78,251.3877,0,868.0729,0,3.607,3.026,259,22.17,20.5,35.11369,0.14,49.13,56.81,33.08,34.94
"2016-07-29 15:30:00",246394,0.426,162.1,21.59,77.22,263.5877,0,868.0665,0,4.438,3.018,373,22.2,20.58,38.47546,0.146,49.13,56.75,33.08,34.93
"2016-07-29 15:40:00",246395,0.507,193.8,21.84,74.87,234.9177,0,867.9823,0,3.589,3.025,258,22.22,20.6,33.54231,0.143,49.13,56.75,33.08,34.93
"2016-07-29 15:50:00",246396,0.353,196.5,21.98,73.74,254.4497,0,867.838,0,2.225,3.037,264,22.32,20.6,38.50681,0.151,49.13,56.7,33.08,34.91
"2016-07-29 16:00:00",246397,0.207,218,22.33,72.83,246.4591,0,867.8298,0,1.228,3.045,266,22.32,20.59,40.37165,0.163,49.08,56.75,33.07,34.93
"2016-07-29 16:10:00",246398,0.214,92.7,22.6,73.18,183.0653,0,867.8287,0,4.585,3.011,372,22.35,20.62,27.27924,0.147,49.13,56.7,33.08,34.91
"2016-07-29 16:20:00",246399,0.577,51.84,22.3,73.01,112.6353,0,867.8223,0,-0.344,3.062,198,22.36,20.62,14.63005,0.129,49.08,56.75,33.07,34.93
"2016-07-29 16:30:00",246400,0.117,16.73,21.96,74.96,84.51009,0,867.8206,0,-0.211,3.062,218,22.4,20.64,10.24611,0.12,49.08,56.75,33.07,34.93
"2016-07-29 16:40:00",246401,0.021,196.5,21.88,80.2,105.0448,0,867.8203,0,1.239,3.048,214,22.5,20.65,13.06585,0.121,49.13,56.7,33.08,34.91
"2016-07-29 16:50:00",246402,0.019,210,21.6,81.3,76.54092,0,867.8202,0,1.426,3.048,221,22.53,20.67,7.461474,0.096,49.08,56.75,33.07,34.93
"2016-07-29 17:00:00",246403,0,0,21.38,81.8,49.86662,0,867.8207,0,0.678,3.057,224,22.5,20.73,3.6379,0.073,49.13,56.75,33.08,34.93
"2016-07-29 17:10:00",246404,0,0,21.23,83.8,40.60297,0,867.835,0,0.4,3.059,245,22.52,20.75,3.933468,0.097,49.08,56.7,33.07,34.91
"2016-07-29 17:20:00",246405,0,0,21.32,84.2,46.76155,0,867.8331,0,4.576,3.019,297,22.58,20.75,5.987351,0.128,49.08,56.7,33.07,34.91
"2016-07-29 17:30:00",246406,0.034,181.1,21.33,84,50.71564,0,867.8398,0,3.975,3.025,229,22.63,20.75,6.351181,0.123,49.03,56.7,33.05,34.91
"2016-07-29 17:40:00",246407,0.087,182.3,21.26,85.6,66.40961,0,867.8426,0,3.536,3.029,215,22.63,20.75,9.67464,0.145,49.03,56.7,33.05,34.91
"2016-07-29 17:50:00",246408,0,0,21.33,83.7,42.50593,0,867.8792,0,3.386,3.03,204,22.63,20.73,4.987026,0.117,49.03,56.7,33.05,34.91
"2016-07-29 18:00:00",246409,0,0,21.17,84.4,36.39834,0,868.0949,0,3.26,3.033,203,22.63,20.7,4.308706,0.117,49.03,56.7,33.05,34.91
"2016-07-29 18:10:00",246410,0.012,70.34,20.83,86.5,29.02514,0,868.0979,0,3.4,3.033,214,22.64,20.72,3.315848,0.112,49.08,56.7,33.07,34.91
"2016-07-29 18:20:00",246411,0,0,20.64,87.4,27.88536,0,868.3054,0,2.766,3.04,207,22.65,20.82,3.691013,0.131,49.08,56.7,33.07,34.91
"2016-07-29 18:30:00",246412,0.072,200.5,20.49,91.5,8.536575,0,868.3656,0,2.285,3.046,206,22.67,20.84,0.3903227,0.024,49.03,56.64,33.05,34.9
"2016-07-29 18:40:00",246413,0.075,192.3,20.3,89.8,2.751198,0,868.3515,0,2.032,3.048,213,22.67,20.84,0,0,49.03,56.7,33.05,34.91
"2016-07-29 18:50:00",246414,0.003,272.7,20.2,88.9,4.547338,0,868.3781,0,1.215,3.057,210,22.65,20.84,0.41306,0.082,49.03,56.7,33.05,34.91
"2016-07-29 19:00:00",246415,0.058,131.4,19.96,92.6,0.9078954,0,868.3738,0,1.083,3.061,206,22.58,20.84,0,0,49.08,56.7,33.07,34.91
"2016-07-29 19:10:00",246416,0,0,19.75,95.8,0,0,868.3538,0,0.98,3.062,222,22.56,20.85,0,0,49.03,56.7,33.05,34.91
"2016-07-29 19:20:00",246417,0.092,159.5,19.59,94.3,0,0,868.361,0,0.867,3.064,334,22.55,20.88,0,0,49.03,56.7,33.05,34.91
"2016-07-29 19:30:00",246418,0.039,95.9,19.51,97,0,0,868.5183,0,1.855,3.054,230,22.56,20.95,0,0,49.03,56.7,33.05,34.91
"2016-07-29 19:40:00",246419,0,0,19.56,96.6,0,0,868.6654,0,1.624,3.056,247,22.58,21,0.01136862,0,49.03,56.64,33.05,34.9
"2016-07-29 19:50:00",246420,0.035,15.09,19.5,96.1,0,0,868.8515,0,1.695,3.056,233,22.59,20.96,0.02273725,0,48.97,56.7,33.04,34.91
"2016-07-29 20:00:00",246421,0,0,19.44,95.7,0,0,868.8936,0,1.789,3.056,226,22.58,20.94,0,0,49.03,56.64,33.05,34.9
"2016-07-29 20:10:00",246422,0,0,19.16,99.3,0,0,869.0058,0,2.067,3.054,236,22.5,20.93,0,0,49.03,56.64,33.05,34.9
"2016-07-29 20:20:00",246423,0.046,65.14,19.13,99.2,0,0,868.999,0,2.297,3.052,241,22.5,20.93,0.09094898,0,48.97,56.64,33.04,34.9
"2016-07-29 20:30:00",246424,0.05,51.8,19.12,97.1,0,0,868.9108,0,2.297,3.052,276,22.5,20.93,0.1743189,0,49.03,56.64,33.05,34.9
"2016-07-29 20:40:00",246425,0,0,19.12,96.6,0,0,868.8842,0,2.114,3.054,284,22.48,20.93,0,0,48.97,56.64,33.04,34.9
"2016-07-29 20:50:00",246426,0,0,19,99.8,0,0,868.9034,0,1.516,3.06,256,22.41,20.96,0.04547449,0,49.03,56.64,33.05,34.9
"2016-07-29 21:00:00",246427,0.026,81.7,18.95,99.1,0,0,868.9067,0,0.426,3.071,236,22.38,21.01,0.1326339,0,48.97,56.64,33.04,34.9
"2016-07-29 21:10:00",246428,0.027,88.9,19.07,96.6,0,0,868.909,0,0.205,3.072,234,22.41,21.01,0.231162,0,48.97,56.64,33.04,34.9
"2016-07-29 21:20:00",246429,0.04,50.93,19.12,95,0,0,868.9799,0,-0.082,3.075,237,22.4,20.99,0.2842156,0,49.03,56.64,33.05,34.9
"2016-07-29 21:30:00",246430,0,0,19.1,96.4,0,0,869.1661,0,-0.059,3.075,225,22.35,21.01,0.2273725,0,48.97,56.64,33.04,34.9
"2016-07-29 21:40:00",246431,0,0,19,97.6,0,0,869.1572,0,-0.091,3.076,218,22.32,21.02,0.1250549,0,48.97,56.64,33.04,34.9
"2016-07-29 21:50:00",246432,0.113,322.7,18.97,96.3,0,0,869.16,0,0.012,3.075,235,22.32,21.02,0.1667398,0,48.97,56.64,33.04,34.9
"2016-07-29 22:00:00",246433,0.026,122.8,18.97,96.8,0,0,869.1607,0,-0.147,3.077,229,22.33,21.02,0.1174758,0,48.97,56.58,33.04,34.88
"2016-07-29 22:10:00",246434,0.039,89.1,18.79,99.7,0,0,869.0848,0,0.21,3.074,228,22.33,21.02,0.03410587,0,49.03,56.58,33.05,34.88
"2016-07-29 22:20:00",246435,0.045,320.8,18.8,99.2,0,0,868.917,0,0.775,3.069,237,22.25,21.02,0.08715944,0,48.97,56.58,33.04,34.88
"2016-07-29 22:30:00",246436,0.114,291.6,18.65,100,0,0,868.9127,0,0.559,3.072,223,22.24,21.02,0,0,49.03,56.58,33.05,34.88
"2016-07-29 22:40:00",246437,0.1,332.1,18.64,100,0,0,868.9134,0,0.662,3.071,223,22.25,21.02,0.0644222,0,48.97,56.58,33.04,34.88
"2016-07-29 22:50:00",246438,0.22,315.4,18.58,99.9,0,0,868.915,0,0.108,3.075,219,22.26,21.04,0.1856875,0,48.97,56.58,33.04,34.88
"2016-07-29 23:00:00",246439,0.13,309.5,18.61,99.8,0,0,868.9206,0,0.408,3.073,224,22.17,21.07,0.2273725,0,49.03,56.58,33.05,34.88
"2016-07-29 23:10:00",246440,0,0,18.52,100,0,0,868.9225,0,-0.22,3.08,224,22.15,21.1,0.2273725,0,48.97,56.58,33.04,34.88
"2016-07-29 23:20:00",246441,0.068,2.805,18.46,100,0,0,868.923,0,0.249,3.075,230,22.15,21.11,0.140213,0,48.97,56.58,33.04,34.88
"2016-07-29 23:30:00",246442,0.109,28.3,18.5,100,0,0,868.923,0,0.193,3.076,223,22.17,21.09,0.2160038,0,48.97,56.58,33.04,34.88
"2016-07-29 23:40:00",246443,0.149,29.79,18.45,100,0,0,868.923,0,1.536,3.063,250,22.05,21.09,0.2273725,0,49.03,56.58,33.05,34.88
"2016-07-29 23:50:00",246444,0.043,40.47,18.43,100,0,0,868.9189,0,1.95,3.059,285,22.06,21.09,0.2273725,0,49.03,56.58,33.05,34.88
